Race Coverage Navigation

TS # 8 / Campo Verde, AZ  2019

 


TS STATS
TS Distance 54.47 
Total Distance 500.01 
Miles To Go 2570.27 
TS Climbing 487 
Total Climbing
TS  Elevation
TS  Net Elevation 776 
Map Filename Open Map 
Directions Filename  
Latitude 34.73 
Longitude -112.01 
Google Map  TimeStation Map 


TS Arrival Data
Arr Ord  #/Name Arrival DT TS Dst Avg This TS Ascending Avg Overall
 1 T205 - Prevent Breast Cancer powered by Endomag  06/16/2019 23:16 54.47  15.54 
 2 594 - Mauerhofer Thomas  06/13/2019 10:29 54.47  5.38  11.88 
 3 R122 - Kirk Gentle  06/13/2019 11:10 54.47  5.83  11.41 
 4 R121 - Ironmae (Rosecler Costa)  06/13/2019 11:45 54.47  6.13  11.23 
 5 416 - Leah Goldstein  06/13/2019 8:59 54.47  6.15  12.23 
 6 T414 - Brazil Nuts  06/17/2019 0:52 54.47  6.85  14.94 
 7 559 - Team Martin RAAM 2019 (Martin Bergmeister)  06/13/2019 9:45 54.47  7.15  12.1 
 8 R87 - Spoke Life Cycles / TRD (Lucas Spencer)  06/13/2019 20:32 54.47  7.73  9.44 
 9 R203 - Mike 'n' Jay Giretto con Amici  06/13/2019 2:19 54.47  7.95  14.22 
 10 615 - Philipp Amhof  06/13/2019 6:05 54.47  7.97  13.22 
 11 411 - Geoff Brunner  06/13/2019 11:02 54.47  8.17  11.77 
 12 R84 - James Jason Ingels  06/13/2019 10:32 54.47  8.6  11.65 
 13 R116 - Philippe May  06/13/2019 15:56 54.47  8.74  10.3 
 14 367 - Daniela Genovesi  06/13/2019 11:10 54.47  8.81  11.61 
 15 R104 - Team everve Christian (Christian Beichel)  06/13/2019 7:43 54.47  9.05  12.44 
 16 R119 - Team BlueLine (Martha Hall)  06/13/2019 14:30 54.47  9.13  10.58 
 17 R112 - John Hoopingarner  06/13/2019 17:01 54.47  9.15  10.09 
 18 399 - Valerio Zamboni  06/13/2019 12:11 54.47  9.15  11.46 
 19 R115 - Kym Louie  06/13/2019 13:31 54.47  9.18  10.81 
 20 610 - Kabir Rachure  06/13/2019 11:37 54.47  9.18  11.55 
 21 608 - Elin Starup  06/13/2019 10:57 54.47  9.47  11.65 
 22 R114 - Krishna Prakash  06/13/2019 18:11 54.47  9.53  9.85 
 23 510 - John C. Tarlton  06/13/2019 11:27 54.47  9.81  11.64 
 24 568 - Alexandra Meixner  06/13/2019 6:58 54.47  9.9  12.85 
 25 491 - BOURREAU JACQUES  06/14/2019 3:10 54.47  9.93  8.52 
 26 R105 - 2nd Chance Racing (Craig Johnson)  06/13/2019 13:39 54.47  9.93  10.83 
 27 563 - Team Nico Ultracycling - In Fight against Cancer   06/13/2019 16:45 54.47  9.93  10.35 
 28 R110 - James Golding  06/13/2019 14:51 54.47  10.15  10.55 
 29 R209 - Workhorses  06/13/2019 2:33 54.47  10.18  14.1 
 30 424 - Team i RON man Veterans supporting Veterans  06/13/2019 16:12 54.47  10.31  10.49 
 31 R117 - ROGIE (Roger Foote)  06/13/2019 16:47 54.47  10.41  10.12 
 32 604 - Chieko Ozawa  06/13/2019 5:35 54.47  10.41  13.32 
 33 607 - Sabine Bird (Team Bean)  06/13/2019 14:50 54.47  10.44  10.68 
 34 R207 - We Might Make It!  06/13/2019 6:54 54.47  11  12.56 
 35 620 - Team Jefferson (Allan Jefferson)  06/13/2019 4:48 54.47  11.43  13.66 
 36 611 - Marcelo Soares " MIXIRICA "  06/13/2019 10:22 54.47  11.43  11.89 
 37 R103 - Chris Davies  06/13/2019 10:51 54.47  11.8  11.54 
 38 288 - Dave Haase  06/13/2019 2:48 54.47  12.02  14.63 
 39 605 - Christian Echavarria  06/13/2019 16:09 54.47  12.06  10.46 
 40 539 - Kari Rouvinen  06/13/2019 10:42 54.47  12.1  11.83 
 41 603 - Alan Bradley  06/13/2019 17:15 54.47  12.24  14.25 
 42 603 - Alan Bradley  06/13/2019 3:28 54.47  12.24  14.25 
 43 R124 - Andres Rodriguez  06/13/2019 0:11 54.47  12.38  15.21 
 44 621 - Themsen Ultracycling (Jacob Themsen)  06/13/2019 7:24 54.47  12.43  12.75 
 45 R120 - Team Next Step (Peter Pedersen)  06/13/2019 9:27 54.47  12.87  11.88 
 46 527 - TALABARDON (Herve Talabardon)  06/13/2019 16:11 54.47  12.87  10.48 
 47 623 - Ultra Paka Racing Team (Daniel Polman)  06/13/2019 2:23 54.47  12.97  14.61 
 48 T204 - Lucan CRC  06/16/2019 20:15 54.47  13.02  17.13 
 49 161 - Seana Hogan  06/13/2019 5:19 54.47  13.13  13.45 
 50 R106 - Damaceleste.com (Valentina Tanzi)  06/13/2019 6:25 54.47  13.18  12.79 
 51 618 - GREGORY ROBINSON  06/13/2019 9:14 54.47  13.34  12.19 
 52 R402 - SUWOS  06/12/2019 21:41 54.47  13.5  16.31 
 53 529 - Isa Pulver  06/13/2019 0:54 54.47  13.67  15.24 
 54 R201 - IN OUR PRIME  06/12/2019 22:33 54.47  13.73  15.94 
 55 442 - Joe Barr  06/13/2019 2:00 54.47  13.85  14.93 
 56 T409 - Serpentine Golden Girls  06/17/2019 1:11 54.47  14.09  14.76 
 57 R111 - Jennifer Orr  06/13/2019 0:41 54.47  14.27  14.97 
 58 329 - Peter Oyler  06/13/2019 3:09 54.47  14.4  14.47 
 59 T207 - Team Life Time  06/16/2019 20:56 54.47  14.4  16.77 
 60 T208 - Team Machine  06/16/2019 22:26 54.47  14.46  15.97 
 61 622 - Thomas Odom-Team Kyle Pease Foundation  06/13/2019 4:46 54.47  14.59  13.66 
 62 T410 - Soap-Aid  06/16/2019 19:26 54.47  14.59  17.79 
 63 349 - Mark Pattinson  06/13/2019 0:12 54.47  14.86  15.81 
 64 T415 - TEAM FIRE VELO 935  06/16/2019 20:30 54.47  14.99  17.19 
 65 T413 - TEAM BRASIL - SKIPPER  06/16/2019 21:27 54.47  15.49  16.63 
 66 T203 - JPsDuo  06/17/2019 0:48 54.47  15.64  14.82 
 67 T801 - Mind Over Matter  06/16/2019 22:44 54.47  15.94  16.01 
 68 T802 - Scorchers  06/16/2019 17:25 54.47  15.94  19.31 
 69 R200 - EY Legacy Builders 2019  06/12/2019 19:01 54.47  16.1  17.98 
 70 T806 - Team SuperMarrow  06/16/2019 21:28 54.47  16.1  16.73 
 71 T402 - EA/WFP RAAM Team  06/16/2019 21:47 54.47  16.18  16.35 
 72 612 - Markus K. Brandl  06/12/2019 23:18 54.47  16.51  16.13 
 73 T206 - Project Linear Acceleration  06/16/2019 19:06 54.47  16.76  17.86 
 74 609 - Jakob Olsen  06/12/2019 23:29 54.47  16.76  16.06 
 75 617 - SOLO.kiwi (Craig Harper)  06/12/2019 23:25 54.47  16.76  16.03 
 76 279 - Marko Baloh  06/12/2019 20:39 54.47  17.02  17.85 
 77 T210 - Bike Wine Team  06/17/2019 1:58 54.47  17.2  14.36 
 78 T403 - EKJ Denmark  06/16/2019 18:44 54.47  17.2  18.17 
 79 T202 - Integra Medical - BAA Racing  06/16/2019 18:06 54.47  17.29  18.47 
 80 R205 - Team OB2  06/12/2019 19:08 54.47  17.29  17.86 
 81 R401 - San Diego Sports Medicine/Zoca  06/12/2019 17:46 54.47  17.38  18.72 
 82 T400 - Cantastic4  06/16/2019 17:58 54.47  17.38  18.66 
 83 R202 - Laureus Alegra  06/12/2019 21:48 54.47  17.48  16.32 
 84 T408 - Radeln-fuer-Kinder (Cycling-for-Kids)  06/16/2019 17:44 54.47  17.67  18.92 
 85 T803 - Team EndoPark  06/16/2019 20:11 54.47  17.76  17.45 
 86 T200 - AIR RELAX GoPro TEAM BRASIL  06/16/2019 16:52 54.47  17.76  19.33 
 87 R400 - HTX Velo Femme  06/12/2019 19:05 54.47  17.76  17.85 
 88 T808 - Antonia's Friends 2019  06/16/2019 18:18 54.47  18.06  18.74 
 89 T416 - Team Rotary Raams Polio  06/16/2019 17:39 54.47  18.36  19.07 
 90 T418 - The Opportunists  06/16/2019 18:28 54.47  18.57  18.52 
 91 T417 - Team4RAAM 2019 powered by TGW Living Logistics  06/16/2019 21:37 54.47  18.57  16.57 
 92 377 - Christoph Strasser  06/12/2019 18:34 54.47  18.57  19.29 
 93 T405 - High Rollers  06/16/2019 20:03 54.47  18.68  17.36 
 94 T406 - Operation Walk Midwest  06/16/2019 17:43 54.47  18.68  18.9 
 95 T804 - Team FSHD Skyland Trail  06/16/2019 17:29 54.47  18.89  19.28 
 96 T407 - Julian Becker   06/16/2019 16:15 54.47  19.22  20.03 
 97 T412 - Team Aspect  06/16/2019 16:33 54.47  19.34  19.85 
 98 T201 - EAT WELL  06/16/2019 15:00 54.47  19.69  20.85 
 99 R403 - Team Viasat-Denver  06/12/2019 15:23 54.47  20.43  20.52 
 100 T807 - Team ZOE International  06/16/2019 17:03 54.47  20.55  19.65 
 101 T404 - Gentlemen of speed  06/16/2019 14:24 54.47  20.68  21.58 
 102 R404 - Team Viasat - Carlsbad  06/12/2019 14:01 54.47  21.93  21.72 
 103 T411 - team alpha - tischlerei groemmer  06/16/2019 13:32 54.47  22.7  22.54 
 104 T401 - Data Techniques powered by Networks Centre  06/16/2019 13:36 54.47  23.51  22.31 
 105 T800 - Backstedt Racing Project 14  06/16/2019 13:34 54.47  24.03  22.64 
 106 T805 - Team Oceanside  06/16/2019 16:12 54.47  35.14  20.3